sat.trackr.live / text

‹ back to catalog

STARLINK-5546

NORAD 55632 · 2023-021E

PAYLOAD ACTIVE UNKNOWN

§ Identity

Operator
Country
US
Launch date
2023-02-17
Launch site
AFWTR
Launch vehicle
Mass (kg)
RCS (m²)

Purposes: comms

External: N2YO · Heavens-Above · Gunter

§ Orbital elements

Epoch: 2026-09-20T22:00:03.000096Z

Period
95.62 min
Inclination
70.0005°
Eccentricity
0.0003633
Mean motion
15.06013604 rev/d
Perigee alt
545.9 km
Apogee alt
550.9 km
Semi-major
6,926.5 km
B*
5.0019e-3
RAAN
72.1572°
Arg perigee
314.2961°
Mean anomaly
23.2363°
Rev number
556

§ Raw data

STARLINK-55461 55632U 23021E   26263.91670139  .00073752  00000+0  50019-2 0  99942 55632  70.0005  72.1572 0003633 314.2961  23.2363 15.06013604  5561

JSON: /api/v1/satellites/55632 · /tle

For live sub-satellite position, see the globe view (requires WebGL).

§ Visibility from observer

Set your observer location to see the next 7 days of passes ≥ 10°. The values pass through the URL so the page stays shareable.

No JS? Fill the form by hand. The geolocation button needs JavaScript.